Weather History for Ames, IA

Change the Weather History Date:

Thursday, April 25, 2013

  Actual Average Record
Temperature  
Mean Temperature 45 °F 53 °F  
Max Temperature 60 °F 64 °F 88 °F (2012)
Min Temperature 30 °F 42 °F 30 °F (2013)
Degree Days  
Heating Degree Days 20 12  
Month to date heating degree days 565 412  
Since 1 July heating degree days 6668 6568  
Cooling Degree Days 0 0  
Month to date cooling degree days 0 0  
Year to date cooling degree days 0 0  
Moisture  
Dew Point 31 °F    
Average Humidity 62    
Maximum Humidity 92    
Minimum Humidity 32    
Precipitation  
Precipitation 0.00 in 0.14 in 1.59 in (2007)
Month to date precipitation 6.27 2.68  
Sea Level Pressure  
Sea Level Pressure 30.20 in    
Wind  
Wind Speed 9 mph (WSW)    
Max Wind Speed 16 mph    
Max Gust Speed 21 mph    
Visibility 10 miles    
Events      
T = Trace of Precipitation, MM = Missing Value Source: NWS Daily Summary

Daily Weather History Graph

Daily Weather History Graph

Search for Another Location

Airport:

Trip Planner

Search our weather history database for the weather conditions in past years. The results will help you decide how hot, cold, wet, or windy it might be!

Date:

Astronomy

Apr. 25, 2013 Rise Set
Actual Time 6:18 AM CDT 8:07 PM CDT
Civil Twilight 5:48 AM CDT 8:36 PM CDT
Nautical Twilight 5:12 AM CDT 9:13 PM CDT
Astronomical Twilight 4:33 AM CDT 9:52 PM CDT
Moon 8:21 PM CDT (4/25) 6:01 AM CDT (4/25)
Length of Visible Light 14h 48m
Length of Day
13h 48m
Full, 100% of the Moon is Illuminated
Apr 25
Full
Apr 25
Full
May 2
Last Quarter
May 9
New
May 17
First Quarter

Hourly Weather History & Observations

Time (CDT) Temp. Windchill Dew Point Humidity Pressure Visibility Wind Dir Wind Speed Gust Speed Precip Events Conditions
12:53 AM 37.9 °F 30.0 °F 32.0 °F 79% 30.15 in 10.0 mi WNW 12.7 mph - N/A   Clear
1:53 AM 36.0 °F 28.0 °F 30.9 °F 82% 30.17 in 10.0 mi WNW 11.5 mph - N/A   Clear
2:53 AM 34.0 °F 26.6 °F 30.9 °F 89% 30.18 in 10.0 mi WNW 9.2 mph - N/A   Clear
3:53 AM 33.1 °F 26.1 °F 30.0 °F 89% 30.18 in 10.0 mi West 8.1 mph - N/A   Clear
4:53 AM 30.9 °F 23.5 °F 28.9 °F 92% 30.20 in 10.0 mi West 8.1 mph - N/A   Clear
5:53 AM 30.0 °F 23.2 °F 28.0 °F 92% 30.21 in 10.0 mi West 6.9 mph - N/A   Clear
6:53 AM 30.0 °F 23.2 °F 28.9 °F 96% 30.23 in 10.0 mi West 6.9 mph - N/A   Clear
7:53 AM 35.1 °F 28.6 °F 30.9 °F 85% 30.25 in 10.0 mi WNW 8.1 mph - N/A   Clear
8:53 AM 39.0 °F 32.8 °F 30.0 °F 70% 30.27 in 10.0 mi NW 9.2 mph - N/A   Clear
9:53 AM 42.1 °F 36.1 °F 28.0 °F 58% 30.28 in 10.0 mi NW 10.4 mph - N/A   Clear
10:53 AM 45.0 °F 40.6 °F 27.0 °F 49% 30.29 in 10.0 mi NW 8.1 mph - N/A   Clear
11:53 AM 48.9 °F - 28.9 °F 46% 30.28 in 10.0 mi Variable 4.6 mph - N/A   Clear
12:53 PM 52.0 °F - 28.9 °F 41% 30.27 in 10.0 mi WSW 9.2 mph - N/A   Clear
1:53 PM 52.0 °F - 27.0 °F 38% 30.25 in 10.0 mi Calm Calm - N/A   Clear
2:53 PM 55.9 °F - 28.0 °F 34% 30.23 in 10.0 mi WSW 8.1 mph - N/A   Clear
3:53 PM 57.9 °F - 30.9 °F 36% 30.20 in 10.0 mi SSW 9.2 mph 17.3 mph N/A   Clear
4:53 PM 60.1 °F - 32.0 °F 35% 30.17 in 10.0 mi South 11.5 mph 18.4 mph N/A   Clear
5:53 PM 60.1 °F - 30.9 °F 33% 30.16 in 10.0 mi South 9.2 mph - N/A   Clear
6:53 PM 59.0 °F - 32.0 °F 36% 30.15 in 10.0 mi South 10.4 mph - N/A   Clear
7:53 PM 55.9 °F - 33.1 °F 42% 30.14 in 10.0 mi SSE 10.4 mph - N/A   Clear
8:53 PM 53.1 °F - 34.0 °F 48% 30.13 in 10.0 mi SSE 10.4 mph - N/A   Clear
9:53 PM 51.1 °F - 34.0 °F 52% 30.15 in 10.0 mi SSE 11.5 mph - N/A   Clear
10:53 PM 50.0 °F - 34.0 °F 54% 30.15 in 10.0 mi SSE 10.4 mph - N/A   Clear
11:53 PM 48.0 °F - 35.1 °F 61% 30.14 in 10.0 mi SSE 10.4 mph - N/A   Clear